Flag for Taiwan Weather past 2 weeks in Taipei, Taiwan

Now
75 °F

Partly sunny.


Feels Like: 75 °F
Forecast: 74 / 85 °F
Wind: 10 mph from Southeast

Location: Sungshan / Taipei

Current Time: May 26, 2015 at 10:45:33 AM

Latest Report: May 26, 2015 at 10:00 AM


Visibility: N/A

Pressure: 29.89 "Hg

Humidity: 83%

Dew point: 70 °F

Location of TaipeiLocation

Historic Weather in Taipei — Graph

°F

Taipei temperature yesterday

Maximum temperature yesterday: 77 °F (at 12:30 PM)
Minimum temperature yesterday: 73 °F (at 12:00 AM)
Average temperature yesterday: 74 °F

Past Weeks' High & Low Weather Summary

 TemperatureHumidityPressure
High95 °F (May 18, 12:30 PM)100% (May 12, 5:00 AM)29.98 "Hg (May 12, 5:00 AM)
Low68 °F (May 12, 7:00 AM)34% (May 19, 11:00 AM)29.68 "Hg (May 18, 4:30 PM)
Average79 °F74%29.81 "Hg
* Reported May 11 9:00 AM — May 26 9:49 AM, Taipei, Weather by CustomWeather, © 2015

Note: Actual official high and low records may vary slightly from our data, if they occured in-between our weather recording intervals... More about our weather records

Advertising

Taipei weather history for previous 24 hours

 ConditionsComfort  
Time TempWeatherWind HumidityBarometerVisibility
9:49 AM
Tue, May 26
73 °FPartly sunny.10 mph89%29.89 "Hg5 mi
9:30 AM73 °FLight rain. Broken clouds.9 mph89%29.89 "Hg4 mi
9:00 AM75 °FRain. Partly sunny.8 mph78%29.89 "Hg3 mi
8:30 AM77 °FPartly sunny.10 mph74%29.86 "HgN/A
8:00 AM75 °FPartly sunny.8 mph78%29.86 "HgN/A
7:30 AM75 °FPartly sunny.7 mph78%29.86 "HgN/A
7:00 AM75 °FPartly sunny.9 mph78%29.86 "HgN/A
6:30 AM73 °FPartly sunny.8 mph83%29.86 "HgN/A
6:00 AM73 °FPartly sunny.8 mph83%29.83 "HgN/A
5:00 AM73 °FPassing clouds.9 mph78%29.83 "HgN/A
4:00 AM72 °FPassing clouds.6 mph88%29.83 "HgN/A
3:00 AM72 °FPassing clouds.8 mph83%29.83 "HgN/A
2:00 AM72 °FPassing clouds.8 mph83%29.83 "HgN/A
1:00 AM73 °FPassing clouds.6 mph78%29.83 "HgN/A
12:00 AM73 °FPassing clouds.6 mph78%29.86 "HgN/A
11:30 PM
Mon, May 25
73 °FPassing clouds.8 mph78%29.86 "HgN/A
11:00 PM73 °FPassing clouds.8 mph78%29.86 "HgN/A
10:30 PM73 °FPassing clouds.9 mph78%29.86 "HgN/A
10:00 PM73 °FPassing clouds.9 mph83%29.86 "HgN/A
9:30 PM73 °FPassing clouds.10 mph83%29.83 "HgN/A
9:00 PM73 °FPassing clouds.10 mph83%29.83 "HgN/A
8:30 PM73 °FPartly cloudy.12 mph83%29.83 "HgN/A
8:00 PM73 °FLight rain. Partly cloudy.13 mph83%29.83 "HgN/A
7:30 PM73 °FLight rain. Partly cloudy.12 mph83%29.80 "HgN/A
7:00 PM73 °FLight rain. Partly cloudy.13 mph83%29.80 "HgN/A
6:56 PM73 °FLight rain. Partly cloudy.13 mph83%29.80 "HgN/A
6:30 PM73 °FBroken clouds.13 mph83%29.80 "HgN/A
6:00 PM73 °FBroken clouds.13 mph83%29.80 "HgN/A
5:30 PM75 °FLight rain. Broken clouds.13 mph78%29.80 "HgN/A
5:00 PM75 °FLight rain. Partly sunny.12 mph78%29.77 "HgN/A
4:58 PM75 °FLight rain. Partly sunny.12 mph78%29.77 "HgN/A
4:30 PM75 °FPartly sunny.12 mph78%29.77 "HgN/A
4:00 PM77 °FPartly sunny.10 mph79%29.77 "HgN/A
3:30 PM75 °FPartly sunny.10 mph83%29.77 "HgN/A
3:00 PM77 °FPartly sunny.10 mph79%29.77 "HgN/A
2:50 PM77 °FPartly sunny.12 mph79%29.77 "HgN/A
2:30 PM75 °FLight rain. Partly sunny.12 mph83%29.77 "HgN/A
2:00 PM75 °FLight rain. Partly sunny.10 mph83%29.77 "HgN/A
1:30 PM75 °FLight rain. Broken clouds.13 mph83%29.77 "HgN/A
1:00 PM75 °FLight rain. Broken clouds.12 mph89%29.77 "HgN/A
12:30 PM77 °FLight rain. Broken clouds.12 mph83%29.77 "HgN/A
11:30 AM75 °FLight rain. Fog.9 mph89%29.77 "Hg6 mi
11:00 AM75 °FLight rain. Fog.9 mph94%29.77 "Hg5 mi
10:30 AM75 °FLight rain. Fog.8 mph94%29.80 "Hg3 mi
10:00 AM75 °FLight rain. Fog.9 mph94%29.80 "Hg2 mi
Weather by CustomWeather, © 2015

See weather overviewHow to use our weather pages